Williston, ND

10:23 AM CDT on October 19, 2019 (GMT -0500)
Sloulin International

Weather History for KISN - August, 2019

Change the Weather History Date:

Friday, August 16, 2019

  Actual Average Record
Temperature  
Mean Temperature 72 °F 70 °F  
Max Temperature 88 °F 85 °F 103 °F (2003)
Min Temperature 55 °F 54 °F 40 °F (2002)
Degree Days  
Heating Degree Days 0 1  
Month to date heating degree days 8 16  
Since 1 June heating degree days 93 160  
Since 1 July heating degree days 23 40  
Cooling Degree Days 7 6  
Month to date cooling degree days 90 106  
Year to date cooling degree days 334 369  
Since 1 June cooling degree days 328 356  
Growing Degree Days 22 (Base 50)    
Moisture  
Dew Point 53 °F    
Average Humidity 55    
Maximum Humidity 86    
Minimum Humidity 24    
Precipitation  
Precipitation 0.00 in 0.05 in 0.94 in (1985)
Month to date precipitation 1.85 0.77  
Year to date precipitation 11.51 10.44  
Sea Level Pressure  
Sea Level Pressure 29.75 in    
Wind  
Wind Speed 9 mph (WSW)    
Max Wind Speed 20 mph    
Max Gust Speed 33 mph    
Visibility 10 miles    
Events      
T = Trace of Precipitation, MM = Missing Value Source: NWS Daily Summary

Daily Weather History Graph

Daily Weather History Graph

Search for Another Location

Airport or City:

Astronomy

Aug. 16, 2019 Rise Set
Actual Time 6:50 AM CDT 9:06 PM CDT
Civil Twilight 6:15 AM CDT 9:40 PM CDT
Nautical Twilight 5:32 AM CDT 10:23 PM CDT
Astronomical Twilight 4:44 AM CDT 11:11 PM CDT
Moon 10:03 PM CDT (8/16) 7:44 AM CDT (8/16)
Length of Visible Light 15h 24m
Length of Day
14h 16m
Full, 99% of the Moon is Illuminated
Aug 16
Full
Aug 23
Last Quarter
Aug 30
New
Sep 5
First Quarter
Sep 13
Full

Hourly Weather History & Observations

Time (CDT) Temp. Heat Index Dew Point Humidity Pressure Visibility Wind Dir Wind Speed Gust Speed Precip Events Conditions
12:52 AM 62.1 °F - 54.0 °F 75% 29.86 in 10.0 mi Calm Calm - N/A   Clear
1:52 AM 57.9 °F - 53.1 °F 84% 29.85 in 10.0 mi WSW 4.6 mph - N/A   Clear
2:52 AM 57.9 °F - 53.1 °F 84% 29.83 in 10.0 mi South 3.5 mph - N/A   Scattered Clouds
3:52 AM 57.0 °F - 52.0 °F 83% 29.82 in 10.0 mi SSW 3.5 mph - N/A   Clear
4:52 AM 57.0 °F - 52.0 °F 83% 29.81 in 10.0 mi SSW 4.6 mph - N/A   Clear
5:52 AM 57.0 °F - 51.1 °F 81% 29.81 in 10.0 mi SSW 5.8 mph - N/A   Clear
6:52 AM 55.9 °F - 51.1 °F 84% 29.81 in 10.0 mi Calm Calm - N/A   Clear
7:52 AM 57.9 °F - 53.1 °F 84% 29.80 in 10.0 mi Calm Calm - N/A   Clear
8:52 AM 62.1 °F - 53.1 °F 72% 29.81 in 10.0 mi SSW 6.9 mph - N/A   Clear
9:52 AM 64.9 °F - 54.0 °F 68% 29.80 in 10.0 mi SSW 5.8 mph - N/A   Mostly Cloudy
10:52 AM 69.1 °F - 54.0 °F 58% 29.78 in 10.0 mi SSW 10.4 mph - N/A   Clear
11:52 AM 75.0 °F - 55.9 °F 51% 29.75 in 10.0 mi SSW 6.9 mph - N/A   Clear
12:52 PM 81.0 °F 80.5 °F 54.0 °F 39% 29.73 in 10.0 mi SSW 13.8 mph - N/A   Clear
1:52 PM 82.9 °F 81.9 °F 54.0 °F 37% 29.70 in 10.0 mi SSW 13.8 mph 23.0 mph N/A   Clear
2:52 PM 86.0 °F - 50.0 °F 29% 29.68 in 10.0 mi WSW 13.8 mph - N/A   Partly Cloudy
3:52 PM 87.1 °F - 46.9 °F 25% 29.67 in 10.0 mi West 16.1 mph - N/A   Partly Cloudy
4:52 PM 86.0 °F - 46.9 °F 26% 29.65 in 10.0 mi West 12.7 mph 25.3 mph N/A   Scattered Clouds
5:52 PM 84.9 °F - 48.0 °F 28% 29.65 in 10.0 mi West 12.7 mph - N/A   Partly Cloudy
6:52 PM 84.9 °F - 48.9 °F 29% 29.64 in 10.0 mi West 11.5 mph - N/A   Mostly Cloudy
7:52 PM 80.1 °F - 51.1 °F 36% 29.65 in 10.0 mi West 8.1 mph - N/A   Partly Cloudy
8:28 PM 77.0 °F - 55.9 °F 48% 29.69 in 10.0 mi NNW 18.4 mph 24.2 mph N/A   Clear
8:52 PM 75.0 °F - 55.9 °F 51% 29.68 in 10.0 mi NNW 16.1 mph - N/A   Clear
9:52 PM 71.1 °F - 55.9 °F 59% 29.71 in 10.0 mi NNW 12.7 mph - N/A   Partly Cloudy
10:52 PM 68.0 °F - 57.0 °F 68% 29.74 in 10.0 mi North 8.1 mph - N/A   Scattered Clouds
11:52 PM 66.9 °F - 55.9 °F 68% 29.74 in 10.0 mi North 12.7 mph - N/A   Scattered Clouds